sat.trackr.live / text

‹ back to catalog

STARLINK-32828

NORAD 63045 · 2025-034S

PAYLOAD ACTIVE UNKNOWN

§ Identity

Operator
Country
US
Launch date
2025-02-18
Launch site
AFETR
Launch vehicle
Mass (kg)
RCS (m²)

Purposes: comms

External: N2YO · Heavens-Above · Gunter

§ Orbital elements

Epoch: 2026-05-25T02:12:03.877920Z

Period
94.10 min
Inclination
53.1591°
Eccentricity
0.0001202
Mean motion
15.30206314 rev/d
Perigee alt
474.4 km
Apogee alt
476.0 km
Semi-major
6,853.3 km
B*
5.9378e-4
RAAN
276.0745°
Arg perigee
58.7241°
Mean anomaly
301.3877°
Rev number
7,060

§ Raw data

STARLINK-328281 63045U 25034S   26145.09171155  .00017271  00000+0  59378-3 0  99912 63045  53.1591 276.0745 0001202  58.7241 301.3877 15.30206314 70604

JSON: /api/v1/satellites/63045 · /tle

For live sub-satellite position, see the globe view (requires WebGL).

§ Visibility from observer

Set your observer location to see the next 7 days of passes ≥ 10°. The values pass through the URL so the page stays shareable.

No JS? Fill the form by hand. The geolocation button needs JavaScript.